Home   Weather   Essen   Past weeks

Flag for Germany Past Weather in Essen, North Rhine-Westphalia, Germany — Yesterday and Last 2 Weeks

Now
73 °F

Passing clouds.


Feels Like: 77 °F
Forecast: 52 / 76 °F
Wind: 5 mph from Northeast

Location: Duesseldorf

Current Time: Aug 30, 2016 at 3:19:15 PM

Latest Report: Aug 30, 2016 at 2:50 PM


Visibility: N/A

Pressure: 30.27 "Hg

Humidity: 44%

Dew Point: 50 °F

Location of EssenLocation

Past Weather in Essen — Graph

°F

Essen Temperature Yesterday

Maximum temperature yesterday: 72 °F (at 3:50 PM)
Minimum temperature yesterday: 57 °F (at 11:50 PM)
Average temperature yesterday: 65 °F

High & Low Weather Summary for the Past Weeks

 TemperatureHumidityPressure
High91 °F (Aug 25, 3:20 PM)100% (Aug 18, 5:20 AM)30.33 "Hg (Aug 18, 5:20 AM)
Low50 °F (Aug 18, 5:20 AM)26% (Aug 25, 3:20 PM)29.77 "Hg (Aug 18, 2:50 PM)
Average70 °F68%30.03 "Hg
* Reported Aug 15 2:20 PM — Aug 30 2:20 PM, Essen, Weather by CustomWeather, © 2016

Note: Actual official high and low records may vary slightly from our data, if they occured in-between our weather recording intervals... More about our weather records

Advertising

Essen Weather History for the Previous 24 Hours

Scroll right to see more
 ConditionsComfort  
Time TempWeatherWind HumidityBarometerVisibility
2:20 PM
Tue, Aug 30
73 °FSunny.2 mph44%30.27 "Hg10 mi
1:50 PM72 °FSunny.5 mph44%30.30 "Hg10 mi
1:20 PM72 °FSunny.6 mph47%30.30 "Hg10 mi
12:50 PM73 °FPassing clouds.8 mph44%30.30 "HgN/A
12:20 PM72 °FPassing clouds.5 mph50%30.30 "HgN/A
11:50 AM72 °FPassing clouds.6 mph53%30.33 "HgN/A
11:20 AM68 °FPassing clouds.3 mph56%30.33 "HgN/A
10:50 AM68 °FPassing clouds.3 mph60%30.33 "HgN/A
10:20 AM66 °FPassing clouds.3 mph68%30.30 "HgN/A
9:50 AM64 °FPassing clouds.2 mph78%30.30 "HgN/A
9:20 AM63 °FSunny.2 mph77%30.30 "Hg10 mi
8:50 AM61 °FSunny.2 mph88%30.30 "Hg10 mi
8:20 AM57 °FSunny.2 mph94%30.30 "Hg10 mi
7:50 AM54 °FSunny.1 mph94%30.30 "Hg10 mi
7:20 AM50 °FFog.1 mph100%30.27 "HgN/A
6:50 AM52 °FFog.2 mph100%30.27 "HgN/A
6:20 AM52 °FFog.3 mph100%30.27 "HgN/A
5:50 AM52 °FFog.2 mph94%30.27 "HgN/A
5:20 AM54 °FFog.2 mph100%30.27 "HgN/A
4:50 AM52 °FClear.1 mph100%30.27 "Hg10 mi
4:20 AM52 °FPassing clouds.2 mph100%30.27 "HgN/A
3:50 AM54 °FPassing clouds.1 mph100%30.27 "HgN/A
3:20 AM54 °FPassing clouds.2 mph100%30.27 "HgN/A
2:50 AM54 °FPassing clouds.2 mph100%30.24 "HgN/A
2:20 AM55 °FPassing clouds.2 mph94%30.24 "HgN/A
1:50 AM55 °FPassing clouds.2 mph100%30.24 "HgN/A
1:20 AM55 °FPassing clouds.1 mph100%30.24 "HgN/A
12:50 AM57 °FPassing clouds.1 mph94%30.24 "HgN/A
12:20 AM57 °FPassing clouds.2 mph100%30.24 "HgN/A
11:50 PM
Mon, Aug 29
57 °FPassing clouds.2 mph94%30.24 "HgN/A
11:20 PM59 °FPassing clouds.2 mph88%30.24 "HgN/A
10:50 PM61 °FPassing clouds.2 mph83%30.21 "HgN/A
10:20 PM63 °FPassing clouds.3 mph83%30.21 "HgN/A
9:50 PM61 °FPassing clouds.5 mph88%30.21 "HgN/A
9:20 PM61 °FScattered clouds.2 mph88%30.18 "HgN/A
8:50 PM66 °FScattered clouds.5 mph68%30.18 "HgN/A
8:20 PM66 °FPassing clouds.6 mph68%30.15 "HgN/A
7:50 PM68 °FPassing clouds.6 mph69%30.15 "HgN/A
7:20 PM70 °FPassing clouds.7 mph64%30.15 "HgN/A
6:50 PM70 °FPassing clouds.7 mph64%30.15 "HgN/A
6:20 PM70 °FScattered clouds.7 mph64%30.15 "HgN/A
5:50 PM70 °FPartly sunny.3 mph69%30.15 "HgN/A
5:20 PM68 °FBroken clouds.6 mph73%30.15 "HgN/A
4:50 PM68 °FSprinkles. Broken clouds.10 mph73%30.12 "HgN/A
4:20 PM70 °FBroken clouds.7 mph73%30.12 "HgN/A
3:50 PM72 °FScattered clouds.6 mph61%30.12 "HgN/A
3:20 PM70 °FPartly sunny.5 mph78%30.12 "HgN/A
Weather by CustomWeather, © 2016

See weather overviewHow to use our weather pages